This is the latest recevied weather packets stored in our database for station/object DG4MND-4. If no packets are shown the sender has not sent any weather packets the latest 10 day(s).
| Time | Temp. | Humidity | Pressure | Rain* | Wind** | Luminosity | Snow |
|---|---|---|---|---|---|---|---|
| 1777801233 | 23.33° C | 39% | 1015.1 hPa | 0 mm | - | - | - |
| 1777800626 | 22.22° C | 44% | 1015.2 hPa | 0 mm | - | - | - |
| 1777800026 | 22.22° C | 47% | 1015.2 hPa | 0 mm | - | - | - |
| 1777799420 | 21.67° C | 48% | 1015.2 hPa | 0 mm | - | - | - |
| 1777798816 | 20.56° C | 51% | 1015.5 hPa | 0 mm | - | - | - |
| 1777798273 | 20.56° C | 51% | 1015.6 hPa | 0 mm | - | - | - |
| 1777797670 | 20.56° C | 52% | 1015.6 hPa | 0 mm | - | - | - |
| 1777797066 | 20.56° C | 50% | 1015.6 hPa | 0 mm | - | - | - |
| 1777796466 | 20.56° C | 51% | 1015.6 hPa | 0 mm | - | - | - |
| 1777795859 | 19.44° C | 52% | 1015.6 hPa | 0 mm | - | - | - |
| 1777795264 | 20° C | 52% | 1015.6 hPa | 0 mm | - | - | - |
| 1777794652 | 19.44° C | 52% | 1015.6 hPa | 0 mm | - | - | - |
| 1777794049 | 19.44° C | 52% | 1015.8 hPa | 0 mm | - | - | - |
| 1777793445 | 18.33° C | 53% | 1015.6 hPa | 0 mm | - | - | - |
| 1777792845 | 17.78° C | 53% | 1015.7 hPa | 0 mm | - | - | - |
| 1777792239 | 17.78° C | 54% | 1015.6 hPa | 0 mm | - | - | - |
| 1777791638 | 18.33° C | 51% | 1015.7 hPa | 0 mm | - | - | - |
| 1777791032 | 17.78° C | 54% | 1015.8 hPa | 0 mm | - | - | - |
| 1777790428 | 17.22° C | 54% | 1015.7 hPa | 0 mm | - | - | - |
| 1777789828 | 16.11° C | 58% | 1015.7 hPa | 0 mm | - | - | - |
| 1777789224 | 15° C | 63% | 1015.6 hPa | 0 mm | - | - | - |
| 1777788618 | 13.89° C | 70% | 1015.6 hPa | 0 mm | - | - | - |
| 1777788075 | 12.78° C | 73% | 1015.6 hPa | 0 mm | - | - | - |
| 1777787472 | 12.78° C | 74% | 1015.5 hPa | 0 mm | - | - | - |
| 1777786871 | 12.78° C | 74% | 1015.4 hPa | 0 mm | - | - | - |
* Rain latest hour (hover to see other rain measurements)
** Current wind speed in m/s (hover to see current wind gust speed)